Date String (YYYY-MM-DD hh:mm:ss) UTC,Instrument flags,absolute air pressure of the measurement (hPa),sample flow rate (lpm),inlet stack bypass flow (lpm),air temperature of the measurement (°C),ambient temperature measured by the external sensor (°C),aerosol sample conditioner tube jacket temperature (°C),OPC LED temperature (°C),internal box temperature (°C),relative humidity of the measurement (%),span deviation,mass concentration of particles derived from Lorenz-Mie calculation of OPC scattering (μg/m³),mass concentration of particles derived from Lorenz-Mie calculation of OPC scattering (μg/m³),mass concentration of particles derived from Lorenz-Mie calculation of OPC scattering (μg/m³)
DateTimeUTC,F1_M11,P_M11,Q1_M11,Q2_M11,T1_M11,T2_M11,T3_M11,T4_M11,T5_M11,U1_M11,ZSPAN_M11,X2_M11,X0_M11,X1_M11
2023-10-28 00:00:00,SystemResetWarning,0830.7,5.00,000.00,025.2,023.7,000.0,033.5,026.7,12.2,0001.3,0007.76,0013.86,0007.05
2023-10-28 00:01:00,SystemResetWarning,0830.7,4.99,000.00,025.2,023.7,000.0,033.5,026.7,12.2,0001.7,0007.78,0012.96,0007.04
2023-10-28 00:02:00,SystemResetWarning,0830.7,5.01,000.00,025.2,023.7,000.0,033.5,026.7,12.2,0001.5,0007.80,0012.99,0007.05
2023-10-28 00:03:00,SystemResetWarning,0830.7,5.01,000.00,025.2,023.7,000.0,033.5,026.7,12.2,0000.9,0007.82,0012.78,0007.06
2023-10-28 00:04:00,SystemResetWarning,0830.7,5.00,000.00,025.2,023.7,000.0,033.5,026.7,12.2,0000.2,0007.78,0012.21,0007.05
2023-10-28 00:05:00,SystemResetWarning,0830.7,4.99,000.00,025.1,023.7,000.0,033.5,026.7,12.3,-000.3,0007.73,0012.37,0007.03
2023-10-28 00:06:00,SystemResetWarning,0830.7,5.00,000.00,025.1,023.7,000.0,033.5,026.7,12.3,-000.9,0007.70,0011.97,0007.03
2023-10-28 00:07:00,SystemResetWarning,0830.7,5.00,000.00,025.1,023.7,000.0,033.5,026.7,12.3,-000.8,0007.72,0011.98,0007.03
2023-10-28 00:08:00,SystemResetWarning,0830.7,5.00,000.00,025.1,023.7,000.0,033.5,026.7,12.3,-000.5,0007.69,0012.19,0007.02
2023-10-28 00:09:00,SystemResetWarning,0830.7,5.00,000.00,025.1,023.7,000.0,033.5,026.7,12.3,-000.4,0007.67,0012.55,0007.02
2023-10-28 00:10:00,SystemResetWarning,0830.7,5.00,000.00,025.1,023.7,000.0,033.5,026.7,12.2,-000.6,0007.62,0012.40,0007.04
2023-10-28 00:11:00,SystemResetWarning,0830.7,5.00,000.00,025.1,023.7,000.0,033.5,026.7,12.3,-000.5,0007.59,0012.67,0007.03
2023-10-28 00:12:00,SystemResetWarning,0830.7,5.00,000.00,025.1,023.7,000.0,033.5,026.6,12.3,-000.5,0007.60,0012.98,0007.06
2023-10-28 00:13:00,SystemResetWarning,0830.7,5.00,000.00,025.1,023.7,000.0,033.5,026.7,12.3,-000.6,0007.61,0013.04,0007.07
2023-10-28 00:14:00,SystemResetWarning,0830.7,5.00,000.00,025.1,023.7,000.0,033.5,026.7,12.3,-000.4,0007.57,0012.98,0007.05
2023-10-28 00:15:00,SystemResetWarning,0830.7,5.00,000.00,025.1,023.7,000.0,033.5,026.7,12.3,-000.2,0007.56,0012.84,0007.06
2023-10-28 00:16:00,SystemResetWarning,0830.7,5.00,000.00,025.1,023.7,000.0,033.4,026.7,12.3,-000.2,0007.57,0012.43,0007.07
2023-10-28 00:17:00,SystemResetWarning,0830.7,4.99,000.00,025.1,023.7,000.0,033.5,026.7,12.4,-000.1,0007.57,0012.72,0007.08
2023-10-28 00:18:00,SystemResetWarning,0830.7,5.00,000.00,025.1,023.7,000.0,033.5,026.7,12.6,0000.1,0007.57,0012.98,0007.08
2023-10-28 00:19:00,SystemResetWarning,0830.7,5.00,000.00,025.1,023.7,000.0,033.5,026.7,13.0,-000.1,0007.56,0012.84,0007.08
2023-10-28 00:20:00,SystemResetWarning,0830.7,5.00,000.00,025.1,023.7,000.0,033.5,026.7,13.2,-000.1,0007.55,0013.13,0007.06
2023-10-28 00:21:00,SystemResetWarning,0830.7,5.01,000.00,025.1,023.7,000.0,033.5,026.7,13.2,-000.2,0007.54,0013.54,0007.05
2023-10-28 00:22:00,SystemResetWarning,0830.8,5.00,000.00,025.1,023.7,000.0,033.5,026.6,12.7,0000.0,0007.56,0013.31,0007.06
2023-10-28 00:23:00,SystemResetWarning,0830.8,5.00,000.00,025.1,023.7,000.0,033.5,026.6,12.6,-000.1,0007.59,0013.08,0007.05
2023-10-28 00:24:00,SystemResetWarning,0830.8,5.00,000.00,025.1,023.7,000.0,033.5,026.6,12.5,0000.4,0007.58,0013.76,0007.03
2023-10-28 00:25:00,SystemResetWarning,0830.8,5.00,000.00,025.1,023.7,000.0,033.5,026.6,12.5,0000.7,0007.56,0013.61,0007.01
2023-10-28 00:26:00,SystemResetWarning,0830.8,5.00,000.00,025.1,023.7,000.0,033.5,026.6,12.6,0001.0,0007.55,0014.22,0006.98
2023-10-28 00:27:00,SystemResetWarning,0830.7,5.00,000.00,025.1,023.7,000.0,033.4,026.6,12.7,0001.0,0007.53,0014.39,0006.95
2023-10-28 00:28:00,SystemResetWarning,0830.8,5.00,000.00,025.1,023.6,000.0,033.4,026.6,13.0,0001.4,0007.50,0014.15,0006.91
2023-10-28 00:29:00,SystemResetWarning,0830.8,5.00,000.00,025.1,023.6,000.0,033.4,026.6,13.1,0001.5,0007.46,0013.75,0006.88
2023-10-28 00:30:00,SystemResetWarning,0830.9,5.00,000.00,025.1,023.6,000.0,033.4,026.6,13.1,0001.4,0007.40,0013.75,0006.86
2023-10-28 00:31:00,SystemResetWarning,0830.8,5.00,000.00,025.1,023.6,000.0,033.4,026.6,13.1,0001.3,0007.38,0013.59,0006.83
2023-10-28 00:32:00,SystemResetWarning,0830.8,5.00,000.00,025.1,023.6,000.0,033.4,026.6,13.1,0000.9,0007.38,0013.45,0006.81
2023-10-28 00:33:00,SystemResetWarning,0830.8,5.00,000.00,025.1,023.6,000.0,033.4,026.6,13.2,0000.9,0007.33,0013.56,0006.78
2023-10-28 00:34:00,SystemResetWarning,0830.9,5.00,000.00,025.1,023.6,000.0,033.4,026.6,13.3,0001.0,0007.27,0013.77,0006.77
2023-10-28 00:35:00,SystemResetWarning,0830.8,5.00,000.00,025.1,023.6,000.0,033.4,026.6,13.4,0000.9,0007.27,0013.63,0006.76
2023-10-28 00:36:00,SystemResetWarning,0830.8,5.00,000.00,025.1,023.6,000.0,033.4,026.6,13.5,0000.7,0007.28,0013.68,0006.76
2023-10-28 00:37:00,SystemResetWarning,0830.8,5.00,000.00,025.1,023.6,000.0,033.4,026.6,13.7,0000.5,0007.32,0014.00,0006.76
2023-10-28 00:38:00,SystemResetWarning,0830.9,5.00,000.00,025.1,023.6,000.0,033.4,026.6,13.8,0000.5,0007.35,0013.82,0006.79
2023-10-28 00:39:00,SystemResetWarning,0830.9,5.00,000.00,025.0,023.5,000.0,033.4,026.6,13.7,0000.2,0007.37,0013.82,0006.82
2023-10-28 00:40:00,SystemResetWarning,0830.9,5.00,000.00,025.0,023.5,000.0,033.4,026.6,13.4,-000.1,0007.40,0014.32,0006.83
2023-10-28 00:41:00,SystemResetWarning,0830.9,5.01,000.00,025.0,023.5,000.0,033.4,026.6,13.5,0000.2,0007.42,0014.32,0006.83
2023-10-28 00:42:00,SystemResetWarning,0830.9,5.00,000.00,025.0,023.5,000.0,033.4,026.6,14.0,0000.2,0007.44,0014.19,0006.84
2023-10-28 00:43:00,SystemResetWarning,0830.9,5.00,000.00,025.0,023.5,000.0,033.4,026.6,14.1,0000.8,0007.45,0013.68,0006.86
2023-10-28 00:44:00,SystemResetWarning,0830.9,5.00,000.00,025.0,023.5,000.0,033.4,026.5,14.4,0000.8,0007.44,0014.04,0006.87
2023-10-28 00:45:00,SystemResetWarning,0830.9,5.00,000.00,025.0,023.5,000.0,033.4,026.5,14.5,0000.4,0007.47,0014.39,0006.87
2023-10-28 00:46:00,SystemResetWarning,0830.9,5.00,000.00,025.0,023.5,000.0,033.4,026.5,14.6,-000.2,0007.45,0013.96,0006.86
2023-10-28 00:47:00,SystemResetWarning,0830.9,5.00,000.00,025.0,023.4,000.0,033.4,026.5,14.7,-000.5,0007.42,0013.07,0006.86
2023-10-28 00:48:00,SystemResetWarning,0830.9,5.00,000.00,025.0,023.4,000.0,033.4,026.5,14.8,-000.9,0007.41,0012.63,0006.88
2023-10-28 00:49:00,SystemResetWarning,0830.9,5.00,000.00,025.0,023.4,000.0,033.4,026.5,14.7,-000.9,0007.39,0012.68,0006.87
2023-10-28 00:50:00,SystemResetWarning,0830.9,5.00,000.00,025.0,023.4,000.0,033.4,026.5,14.2,-001.1,0007.41,0013.05,0006.87
2023-10-28 00:51:00,SystemResetWarning,0830.9,5.00,000.00,025.0,023.4,000.0,033.4,026.5,14.0,-001.1,0007.41,0013.60,0006.86
2023-10-28 00:52:00,SystemResetWarning,0830.9,4.99,000.00,024.9,023.4,000.0,033.4,026.5,14.1,-001.4,0007.40,0013.20,0006.87
2023-10-28 00:53:00,SystemResetWarning,0830.9,5.00,000.00,024.9,023.4,000.0,033.3,026.4,14.6,-001.2,0007.41,0013.36,0006.87
2023-10-28 00:54:00,SystemResetWarning,0831.1,4.99,000.00,024.9,023.3,000.0,033.3,026.4,14.9,-001.0,0007.40,0013.31,0006.87
2023-10-28 00:55:00,SystemResetWarning,0831.1,5.00,000.00,024.9,023.3,000.0,033.3,026.4,15.0,-001.3,0007.42,0012.83,0006.89
2023-10-28 00:56:00,SystemResetWarning,0831.1,5.00,000.00,024.9,023.3,000.0,033.3,026.4,15.0,-000.7,0007.45,0012.50,0006.92
2023-10-28 00:57:00,SystemResetWarning,0831.1,5.01,000.00,024.9,023.3,000.0,033.3,026.4,15.0,-000.1,0007.53,0012.55,0006.98
2023-10-28 00:58:00,SystemResetWarning,0831.1,5.01,000.00,024.9,023.3,000.0,033.3,026.4,14.8,0000.2,0007.62,0013.16,0007.02
2023-10-28 00:59:00,SystemResetWarning,0831.2,5.00,000.00,024.9,023.3,000.0,033.3,026.4,14.6,0000.0,0007.68,0013.56,0007.05
